Regional Weather Roundup
Issued by NWS

Home | Current Version | Previous Version | Graphics & Text | Print | Product List | Glossary On
Versions: 1 2 3 4 5 6 7 8 9 10 11 12 13 14 15 16 17 18 19 20 21 22 23 24 25 26 27 28 29 30 31 32 33 34 35 36 37 38 39 40 41 42 43 44 45 46 47 48 49 50
000
ASUS43 KMKX 270411
RWRWI

WISCONSIN REGIONAL WEATHER ROUNDUP
NATIONAL WEATHER SERVICE MILWAUKEE/SULLIVAN WI
1100 PM CDT THU MAR 26 2015

NOTE: "FAIR" INDICATES FEW OR NO CLOUDS BELOW 12,000 FEET WITH NO
SIGNIFICANT WEATHER AND/OR OBSTRUCTIONS TO VISIBILITY.

WIZ001-002-006>008-014>016-023>028-270500-
NORTHWEST WISCONSIN

CITY           SKY/WX    TMP DP  RH WIND       PRES   REMARKS
SUPERIOR ARPT  CLEAR     23   2  39 N8        30.24R WCI  14
ASHLAND        CLEAR     19   8  62 N8        30.22R WCI   9
HAYWARD        CLEAR     19   7  59 CALM      30.17S
SIREN          CLEAR     23   2  41 N5        30.20S WCI  17
CUMBERLAND     CLEAR     23   5  46 N6        30.17R WCI  16
RICE LAKE      CLEAR     24   5  44 N5        30.18S WCI  18
CHETEK         CLEAR     24   6  47 N3        30.18R
LADYSMITH      CLEAR     20  10  65 NE6       30.18R WCI  13
EAU CLAIRE     CLEAR     24   6  46 N5        30.17R WCI  18
MENOMONIE      CLEAR     26   8  47 N7        30.18R WCI  19
NEW RICHMOND   CLEAR     23   8  54 N5        30.19R WCI  16
OSCEOLA        CLEAR     26   4  39 N3        30.23R
$$

WIZ003>005-009-010-017-018-270500-
NORTH CENTRAL WISCONSIN

CITY           SKY/WX    TMP DP  RH WIND       PRES   REMARKS
MANITOWISH WTR CLOUDY    11   7  83 CALM      30.11S
ARBOR VITAE    PTCLDY     9   4  80 CALM      30.11S
WOODRUFF       PTCLDY     9   4  80 CALM      30.11S
RHINELANDER    PTCLDY     7   3  84 CALM      30.11S
EAGLE RIVER    MOCLDY     9   4  82 CALM      30.10S
LAND O LAKES   PTCLDY     5   1  86 CALM      30.10S
PHILLIPS       PTCLDY    14   7  75 CALM      30.13R
TOMAHAWK       MOCLDY     7   2  83 CALM      30.13S
MEDFORD        CLEAR     14   5  67 NE5       30.14R WCI   6
MERRILL        CLEAR     15   6  67 CALM      30.14R
$$

WIZ029-030-035-036-043>047-270500-
CENTRAL WISCONSIN

CITY           SKY/WX    TMP DP  RH WIND       PRES   REMARKS
WAUSAU         CLEAR     18   6  59 N6        30.13R WCI  10
MOSINEE        CLEAR     19   7  58 N15       30.15R WCI   5
MARSHFIELD     CLEAR     21   7  54 NE9       30.14R WCI  11
STEVENS POINT  CLEAR     19   6  56 N13G20    30.14R WCI   6
WAUPACA        PTCLDY    25   7  46 NW9       30.14R WCI  16
WAUTOMA        CLEAR     24   7  48 N10       30.14R WCI  14
WISC RAPIDS    CLEAR     21   7  54 N12       30.15R WCI   9
CAMP DOUGLAS   CLEAR     25  13  59 N7        30.14R WCI  17
$$

WIZ011>013-019>022-031-037>040-048>050-270500-
NORTHEAST WISCONSIN

CITY           SKY/WX    TMP DP  RH WIND       PRES   REMARKS
ANTIGO         CLEAR     12   4  67 N5        30.11S WCI   5
SHAWANO        MOCLDY    23   7  50 N16G24    30.16R WCI  10
OCONTO         PTCLDY    20   5  52 N9        30.15S WCI   9
STURGEON BAY   PTCLDY    19   7  58 N17       30.14R WCI   4
GREEN BAY      CLOUDY    25  12  58 N18       30.13R WCI  11
MANITOWOC      CLOUDY    26  17  68 N10       30.11R WCI  16
APPLETON       CLOUDY    27  12  54 N13       30.11R WCI  16
CLINTONVILLE   CLOUDY    25   9  50 N13G18    30.13R WCI  13
OSHKOSH        CLOUDY    27  13  55 N14       30.10S WCI  16
$$

WIZ032>034-041-042-053>061-270500-
SOUTHWEST WISCONSIN

CITY           SKY/WX    TMP DP  RH WIND       PRES   REMARKS
LA CROSSE      CLOUDY    32  17  54 N6        30.15R WCI  26
SPARTA         CLEAR     23  15  70 NE3       30.15R
VIROQUA        CLOUDY    28  19  67 N8        30.10S WCI  20
BOSCOBEL       CLOUDY    32  18  56 N5        30.13R WCI  27
PRAIRIE DU CHI CLOUDY    32  19  56 N7        30.13S WCI  26
PLATTEVILLE    CLOUDY    32  23  69 N12       30.10R WCI  23
$$

WIZ056-057-062-063-064-067-068-270500-
SOUTH CENTRAL WISCONSIN

CITY           SKY/WX    TMP DP  RH WIND       PRES   REMARKS
REEDSBURG      PTCLDY    27  14  58 N7        30.12R WCI  19
BARABOO/DELLS  CLEAR     25  15  64 N6        30.11R WCI  18
LONE ROCK      MOCLDY    30  16  56 N7        30.13R WCI  23
MINERAL POINT  CLOUDY    32  19  59 N9        30.09S WCI  24
MADISON        CLOUDY    28  14  55 N10       30.11R WCI  19
MIDDLETON      MOCLDY    31  17  57 N9        30.11R WCI  22
WATERTOWN      CLOUDY    28  18  66 N12G17    30.09R WCI  18
MONROE         CLOUDY    30  23  74 N12       30.08R WCI  21
JANESVILLE     CLOUDY    32  18  55 N8        30.09R WCI  25
$$

WIZ051-052-058>065-066-070>072-270500-
SOUTHEAST WISCONSIN

CITY           SKY/WX    TMP DP  RH WIND       PRES   REMARKS
MILWAUKEE      CLOUDY    31  16  54 N12       30.08R WCI  22
WAUKESHA       CLOUDY    28  18  64 NW7       30.09R WCI  21
MILWAUKEE/TIMM CLOUDY    30  14  51 N10       30.09R WCI  21
RACINE         CLOUDY    31  22  69 N12G21    30.09R WCI  22
BURLINGTON     CLOUDY    29  17  60 N8        30.08R WCI  21
KENOSHA        CLOUDY    31  18  58 N10       30.08R WCI  22
FOND DU LAC    CLOUDY    28  14  55 N14       30.10R WCI  17
SHEBOYGAN      LGT SNOW  26  18  71 N10       30.09R WCI  16
WEST BEND      CLOUDY    28  19  69 N7        30.08R WCI  21
JUNEAU         CLOUDY    28  15  59 NW12      30.10S WCI  17
$$

LSZ147-162-270500-
LAKE SUPERIOR

STATION/POSITION TIME  TEMP    WIND        PRES    WAVE
                       AIR SEA DIR/SP/G            HT/PER
                 (UTC) (F)     (DEG/KT/KT) (MB)    (FT/S)
DEVILS ISLAND    0400   23      10/ 20/ 25 1025.0R
PORT WING        0340   26      10/ 18/ 24 1023.7R
SAXON HARBOR     0300   27     360/ 14/ 20 1022.0R
$$

LMZ867-665-643>646-270500-
LAKE MICHIGAN

STATION/POSITION TIME  TEMP    WIND        PRES    WAVE
                       AIR SEA DIR/SP/G            HT/PER
                 (UTC) (F)     (DEG/KT/KT) (MB)    (FT/S)
NORTHPORT PIER   0308   21     330/ 20/ 25 1020.0S
SISTER BAY       0332   20      20/ 23/ 29   N/A
KEWAUNEE LAKESHO 0300   25     360/ 11/ 18 1018.5R
SHEBOYGAN LAKESH 0400   27     340/ 19/ 21 1020.2R
PORT WASHINGTON  0300   31      10/  6/ 14 1019.3R
MILWAUKEE LAKESH 0300   32     340/  8/ 13   N/A
KENOSHA   LAKESH 0400   32     330/  9/ 13 1018.6R
$$

TC  - TEMPERATURE IN CELSIUS
VSB - VISIBILITY IN STATUTE MILES
WCI - WIND CHILL INDEX
HX  - HEAT INDEX




USA.gov is the U.S. government's official web portal to all federal, state and local government web resources and services.